Weather History for Rantoul, IL

Change the Weather History Date:

Saturday, January 12, 2013

  Actual Average (KCMI) Record (KCMI)
Temperature  
Mean Temperature 46 °F 25 °F  
Max Temperature 58 °F 33 °F 63 °F (2005)
Min Temperature 32 °F 17 °F -9 °F (1997)
Degree Days  
Heating Degree Days 20 40  
Month to date heating degree days 476  
Since 1 July heating degree days 2757  
Cooling Degree Days 0 0  
Month to date cooling degree days 0  
Year to date cooling degree days 0  
Moisture  
Dew Point 44 °F    
Average Humidity 86    
Maximum Humidity 96    
Minimum Humidity 71    
Precipitation  
Precipitation 0.44 in 0.06 in 0.79 in (2013)
Month to date precipitation 0.96  
Year to date precipitation 0.96  
Sea Level Pressure  
Sea Level Pressure 29.89 in    
Wind  
Wind Speed 11 mph (West)    
Max Wind Speed 22 mph    
Max Gust Speed 26 mph    
Visibility 9 miles    
Events Rain    
T = Trace of Precipitation, MM = Missing Value Source: NWS Daily Summary

Daily Weather History Graph

Daily Weather History Graph

Search for Another Location

Airport:

Trip Planner

Search our weather history database for the weather conditions in past years. The results will help you decide how hot, cold, wet, or windy it might be!

Date:

Astronomy

Jan. 12, 2013 Rise Set
Actual Time 7:14 AM CST 4:48 PM CST
Civil Twilight 6:44 AM CST 5:18 PM CST
Nautical Twilight 6:10 AM CST 5:51 PM CST
Astronomical Twilight 5:37 AM CST 6:24 PM CST
Moon 7:32 AM CST (1/12) 6:16 PM CST (1/12)
Length of Visible Light 10h 33m
Length of Day
9h 33m
New Moon, 1% of the Moon is Illuminated
Jan 12
New Moon
Jan 18
First Quarter
Jan 26
Full
Feb 3
Last Quarter
Feb 10
New

Hourly Weather History & Observations

Time (CST) Temp. Windchill Dew Point Humidity Pressure Visibility Wind Dir Wind Speed Gust Speed Precip Events Conditions
12:15 AM 51.3 °F - 47.3 °F 86% 29.82 in 10.0 mi South 11.5 mph 17.3 mph N/A   Clear
12:35 AM 51.4 °F - 47.3 °F 86% 29.82 in 10.0 mi South 11.5 mph - N/A   Clear
12:55 AM 50.9 °F - 47.1 °F 87% 29.82 in 10.0 mi South 12.7 mph - N/A   Clear
1:15 AM 50.9 °F - 47.3 °F 87% 29.83 in 10.0 mi South 11.5 mph - N/A   Clear
1:35 AM 51.8 °F - 46.4 °F 82% 29.83 in 10.0 mi South 10.4 mph - N/A   Clear
1:55 AM 51.3 °F - 47.3 °F 86% 29.85 in 10.0 mi South 11.5 mph - N/A   Clear
2:15 AM 52.5 °F - 47.3 °F 82% 29.83 in 10.0 mi South 9.2 mph - N/A   Clear
2:35 AM 51.8 °F - 47.3 °F 85% 29.85 in 10.0 mi South 9.2 mph - N/A   Clear
2:55 AM 51.8 °F - 47.3 °F 85% 29.84 in 10.0 mi South 9.2 mph - N/A   Clear
3:15 AM 51.3 °F - 47.3 °F 86% 29.83 in 10.0 mi South 10.4 mph - N/A   Clear
3:35 AM 50.5 °F - 47.3 °F 89% 29.84 in 10.0 mi South 9.2 mph - N/A   Clear
3:55 AM 50.5 °F - 47.3 °F 89% 29.85 in 10.0 mi SSW 11.5 mph - N/A   Clear
4:15 AM 51.3 °F - 47.7 °F 87% 29.84 in 10.0 mi SSW 10.4 mph - N/A   Clear
4:35 AM 51.8 °F - 48.2 °F 88% 29.83 in 10.0 mi SSW 10.4 mph - N/A   Clear
4:55 AM 52.0 °F - 48.2 °F 87% 29.85 in 10.0 mi SSW 11.5 mph 17.3 mph N/A   Clear
5:15 AM 52.7 °F - 48.4 °F 85% 29.86 in 10.0 mi SSW 11.5 mph - N/A   Clear
5:35 AM 52.9 °F - 48.6 °F 85% 29.86 in 10.0 mi SSW 11.5 mph - N/A   Clear
5:55 AM 52.9 °F - 48.6 °F 85% 29.87 in 10.0 mi SSW 11.5 mph - N/A   Clear
6:15 AM 52.2 °F - 48.6 °F 88% 29.87 in 10.0 mi SSW 10.4 mph - N/A   Clear
6:35 AM 51.8 °F - 48.2 °F 88% 29.88 in 10.0 mi SSW 9.2 mph - N/A   Clear
6:55 AM 51.8 °F - 48.2 °F 88% 29.89 in 10.0 mi SSW 8.1 mph - N/A   Clear
7:15 AM 51.6 °F - 48.2 °F 88% 29.90 in 10.0 mi SSW 6.9 mph - N/A   Clear
7:35 AM 51.8 °F - 48.6 °F 89% 29.91 in 10.0 mi SSW 9.2 mph - N/A   Clear
7:55 AM 51.4 °F - 48.2 °F 89% 29.92 in 10.0 mi SSW 9.2 mph - N/A   Clear
8:15 AM 52.2 °F - 49.1 °F 89% 29.93 in 10.0 mi SSW 10.4 mph - N/A   Clear
8:35 AM 52.0 °F - 49.1 °F 90% 29.94 in 10.0 mi SW 10.4 mph - N/A   Clear
8:55 AM 52.7 °F - 49.6 °F 89% 29.95 in 10.0 mi SW 11.5 mph - N/A   Clear
9:15 AM 54.0 °F - 50.5 °F 88% 29.94 in 10.0 mi SW 11.5 mph - N/A   Clear
9:35 AM 54.1 °F - 50.9 °F 89% 29.94 in 10.0 mi SW 10.4 mph - N/A   Clear
9:55 AM 54.5 °F - 51.1 °F 88% 29.94 in 10.0 mi SW 8.1 mph - N/A   Clear
10:15 AM 54.3 °F - 51.1 °F 89% 29.95 in 10.0 mi SW 9.2 mph - N/A   Clear
10:35 AM 55.8 °F - 52.0 °F 87% 29.96 in 10.0 mi WSW 9.2 mph - N/A   Clear
10:55 AM 57.0 °F - 51.4 °F 82% 29.96 in 10.0 mi West 9.2 mph 17.3 mph N/A   Clear
11:15 AM 58.1 °F - 51.1 °F 77% 29.96 in 10.0 mi West 10.4 mph - N/A   Clear
11:35 AM 58.1 °F - 50.9 °F 77% 29.94 in 10.0 mi WNW 9.2 mph - N/A   Clear
11:55 AM 57.2 °F - 48.6 °F 73% 29.93 in 10.0 mi West 6.9 mph - N/A   Clear
12:15 PM 56.7 °F - 49.1 °F 76% 29.92 in 10.0 mi NNW 8.1 mph - N/A   Clear
12:35 PM 54.9 °F - 48.6 °F 79% 29.93 in 10.0 mi NNW 5.8 mph - N/A   Clear
12:55 PM 53.8 °F - 48.4 °F 82% 29.94 in 10.0 mi NNW 8.1 mph - N/A   Clear
1:15 PM 52.9 °F - 47.5 °F 82% 29.94 in 10.0 mi NW 8.1 mph - N/A   Clear
1:35 PM 52.9 °F - 46.4 °F 79% 29.93 in 10.0 mi NNW 8.1 mph - N/A   Clear
1:55 PM 51.8 °F - 44.6 °F 76% 29.94 in 10.0 mi NNW 8.1 mph - N/A   Clear
2:15 PM 51.3 °F - 43.2 °F 74% 29.95 in 10.0 mi NNW 6.9 mph - N/A   Clear
2:35 PM 50.4 °F - 41.4 °F 71% 29.95 in 10.0 mi NNW 9.2 mph - N/A   Clear
2:55 PM 49.5 °F - 42.3 °F 76% 29.94 in 10.0 mi NNW 9.2 mph - N/A   Scattered Clouds
3:15 PM 47.8 °F - 41.0 °F 77% 29.94 in 10.0 mi NNW 12.7 mph - N/A   Mostly Cloudy
3:35 PM 46.2 °F 40.5 °F 39.9 °F 79% 29.92 in 10.0 mi North 12.7 mph - N/A   Mostly Cloudy
3:55 PM 44.6 °F 38.1 °F 38.3 °F 79% 29.93 in 10.0 mi NNW 13.8 mph - N/A   Mostly Cloudy
4:15 PM 43.7 °F 37.3 °F 36.0 °F 74% 29.95 in 10.0 mi NNW 12.7 mph - N/A   Overcast
4:35 PM 43.3 °F 37.2 °F 36.7 °F 77% 29.93 in 10.0 mi North 11.5 mph - N/A   Overcast
4:55 PM 42.8 °F 35.8 °F 38.3 °F 84% 29.93 in 10.0 mi NNW 13.8 mph 18.4 mph N/A Rain Rain
5:15 PM 42.3 °F 35.5 °F 39.2 °F 89% 29.91 in 10.0 mi North 12.7 mph - N/A Rain Light Rain
5:35 PM 41.9 °F 35.9 °F 39.4 °F 91% 29.90 in 10.0 mi North 10.4 mph - 0.01 in Rain Light Rain
5:55 PM 41.7 °F 35.2 °F 38.3 °F 88% 29.91 in 10.0 mi North 11.5 mph - 0.02 in   Overcast
6:15 PM 41.2 °F 35.0 °F 37.6 °F 87% 29.90 in 10.0 mi North 10.4 mph - N/A Rain Light Rain
6:35 PM 40.5 °F 33.6 °F 37.8 °F 90% 29.89 in 7.0 mi North 11.5 mph 18.4 mph 0.02 in Rain Rain
6:55 PM 40.5 °F 33.2 °F 38.5 °F 93% 29.88 in 7.0 mi North 12.7 mph - 0.06 in Rain Rain
7:15 PM 39.7 °F 32.3 °F 37.9 °F 93% 29.86 in 5.0 mi North 12.7 mph - 0.02 in Rain Rain
7:35 PM 38.7 °F 29.5 °F 37.0 °F 94% 29.86 in 7.0 mi North 17.3 mph 24.2 mph 0.04 in Rain Rain
7:55 PM 37.4 °F 27.5 °F 35.6 °F 93% 29.86 in 5.0 mi North 18.4 mph 24.2 mph 0.06 in Rain Rain
8:15 PM 36.5 °F 26.3 °F 34.5 °F 93% 29.86 in 5.0 mi North 18.4 mph 23.0 mph 0.02 in Rain Rain
8:35 PM 36.0 °F 27.1 °F 33.4 °F 91% 29.88 in 5.0 mi North 13.8 mph 20.7 mph 0.06 in Rain Rain
8:55 PM 35.6 °F 25.5 °F 33.3 °F 91% 29.88 in 4.0 mi NNW 17.3 mph 26.5 mph 0.10 in   Overcast
9:15 PM 34.9 °F 23.3 °F 32.9 °F 92% 29.85 in 3.0 mi North 21.9 mph 26.5 mph 0.03 in   Overcast
9:35 PM 34.3 °F 23.9 °F 32.4 °F 92% 29.87 in 5.0 mi NNW 17.3 mph 26.5 mph 0.06 in Rain Rain
9:55 PM 34.2 °F 22.6 °F 32.5 °F 94% 29.87 in 4.0 mi NNW 20.7 mph 26.5 mph 0.12 in Rain Rain
10:15 PM 33.8 °F 22.8 °F 31.8 °F 92% 29.87 in 5.0 mi NNW 18.4 mph 26.5 mph 0.01 in Rain Light Rain
10:35 PM 33.4 °F 23.9 °F 31.8 °F 94% 29.87 in 5.0 mi NNW 13.8 mph 17.3 mph 0.02 in Rain Rain
10:55 PM 33.3 °F 23.7 °F 31.6 °F 94% 29.86 in 5.0 mi North 13.8 mph - 0.05 in Rain Rain
11:35 PM 33.1 °F 23.9 °F 32.0 °F 96% 29.86 in 7.0 mi NNW 12.7 mph 16.1 mph 0.03 in Rain Light Rain
11:55 PM 32.9 °F 23.7 °F 32.0 °F 96% 29.84 in 7.0 mi North 12.7 mph 17.3 mph 0.03 in Rain Light Rain